{"data":{"norad_id":49452,"epoch":"2026-09-20T03:12:10.759104Z","epoch_age_seconds":53631,"freshness":"FRESH","line1":"1 49452U 21104AW  26263.13345786 -.00000538  00000+0 -55673-5 0  9996","line2":"2 49452  53.1609  53.5173 0001118  68.0934 292.0186 15.31697720268303","mean_motion":15.3169772,"eccentricity":0.0001118,"inclination_deg":53.1609,"raan_deg":53.5173,"arg_perigee_deg":68.0934,"mean_anomaly_deg":292.0186,"bstar":-5.5673e-6,"rev_number":26830,"period_min":94.01332790389,"perigee_km":469.98108658751,"apogee_km":471.51249700336,"semimajor_km":6848.8837917954,"source":"CELESTRAK","updated_at":"2026-09-20T09:00:39.400895Z"}}